User: anonymous   Login
Location: Unspecified
(0.0000°N, 0.0000°E)
Time: 00:51:51
(UTC+00:00)
Language:

TBA - TO BE ASSIGNED - Orbit

View from above orbital plane
View from above orbital plane
View from above satellite
View from above satellite

Ground track
Ground track

The orbit is defined by the following mean orbital elements,

1 67933U          26145.30468956 +.00000000 +00000-0 +68856-3 0 00006
2 67933  43.0028 118.4397 0001805 266.8132  93.2513 15.27607908    00
Epoch (UTC): 25 May 2026 07:18:45
Eccentricity: 0.0001805
inclination: 43.0028°
perigee height: 482 km
apogee height: 484 km
right ascension of ascending node: 118.4397°
argument of perigee: 266.8132°
revolutions per day: 15.27607908
mean anomaly at epoch: 93.2513°

The dashed part of the orbit path shows where the satellite is in the earth's shadow,  

DLR